Weather History for KABI - November, 2012

Change the Weather History Date:

Saturday, November 10, 2012

  Actual Average Record
Temperature  
Mean Temperature 72 °F 57 °F  
Max Temperature 81 °F 69 °F 85 °F (1962)
Min Temperature 63 °F 45 °F 18 °F (1950)
Degree Days  
Heating Degree Days 0 9  
Month to date heating degree days 15 74  
Since 1 July heating degree days 149 178  
Cooling Degree Days 7 1  
Month to date cooling degree days 32 12  
Year to date cooling degree days 3028 2401  
Growing Degree Days 22 (Base 50)    
Moisture  
Dew Point 56 °F    
Average Humidity 63    
Maximum Humidity 84    
Minimum Humidity 42    
Precipitation  
Precipitation 0.00 in 0.05 in 0.68 in (1920)
Month to date precipitation 0.27 0.58  
Year to date precipitation 23.14 22.76  
Sea Level Pressure  
Sea Level Pressure 29.77 in    
Wind  
Wind Speed 21 mph (South)    
Max Wind Speed 33 mph    
Max Gust Speed 43 mph    
Visibility 10 miles    
Events      
T = Trace of Precipitation, MM = Missing Value Source: NWS Daily Summary

Daily Weather History Graph

Daily Weather History Graph

Search for Another Location

Airport or City:

Trip Planner

Search our weather history database for the weather conditions in past years. The results will help you decide how hot, cold, wet, or windy it might be!

Date:

Astronomy

Nov. 10, 2012 Rise Set
Actual Time 7:04 AM CST 5:40 PM CST
Civil Twilight 6:38 AM CST 6:06 PM CST
Nautical Twilight 6:08 AM CST 6:36 PM CST
Astronomical Twilight 5:39 AM CST 7:05 PM CST
Moon 3:22 AM CST (11/10) 3:19 PM CST (11/10)
Length of Visible Light 11h 28m
Length of Day
10h 36m
Waning Crescent, 14% of the Moon is Illuminated
Nov 10
Waning Crescent
Nov 13
New
Nov 20
First Quarter
Nov 28
Full
Dec 6
Last Quarter

Hourly Weather History & Observations

Time (CST) Temp. Heat Index Dew Point Humidity Pressure Visibility Wind Dir Wind Speed Gust Speed Precip Events Conditions
12:52 AM 66.9 °F - 55.0 °F 66% 29.86 in 10.0 mi South 19.6 mph 26.5 mph N/A   Clear
1:52 AM 64.9 °F - 55.0 °F 70% 29.84 in 10.0 mi South 20.7 mph - N/A   Clear
2:52 AM 64.0 °F - 55.9 °F 75% 29.83 in 10.0 mi South 17.3 mph 25.3 mph N/A   Clear
3:52 AM 64.0 °F - 57.0 °F 78% 29.82 in 10.0 mi South 21.9 mph 28.8 mph N/A   Clear
4:52 AM 63.0 °F - 57.0 °F 81% 29.82 in 10.0 mi South 20.7 mph 27.6 mph N/A   Clear
5:52 AM 64.0 °F - 57.9 °F 80% 29.81 in 10.0 mi South 19.6 mph 31.1 mph N/A   Clear
6:52 AM 64.0 °F - 57.9 °F 80% 29.83 in 10.0 mi South 23.0 mph 29.9 mph N/A   Clear
7:52 AM 64.9 °F - 57.9 °F 78% 29.83 in 10.0 mi South 20.7 mph 29.9 mph N/A   Clear
8:52 AM 66.9 °F - 59.0 °F 76% 29.83 in 10.0 mi South 24.2 mph 35.7 mph N/A   Clear
9:52 AM 70.0 °F - 57.9 °F 65% 29.83 in 10.0 mi South 20.7 mph 38.0 mph N/A   Clear
10:52 AM 73.0 °F - 57.9 °F 59% 29.81 in 10.0 mi South 31.1 mph 38.0 mph N/A   Clear
11:52 AM 75.9 °F - 57.0 °F 52% 29.79 in 10.0 mi South 28.8 mph 40.3 mph N/A   Clear
12:52 PM 77.0 °F - 55.9 °F 48% 29.75 in 10.0 mi South 24.2 mph 33.4 mph N/A   Clear
1:52 PM 80.1 °F 80.2 °F 55.9 °F 43% 29.72 in 10.0 mi South 21.9 mph 31.1 mph N/A   Clear
2:52 PM 80.1 °F 80.1 °F 55.0 °F 42% 29.70 in 10.0 mi SSE 24.2 mph 31.1 mph N/A   Clear
3:52 PM 79.0 °F - 53.1 °F 40% 29.68 in 10.0 mi South 23.0 mph 33.4 mph N/A   Clear
4:52 PM 77.0 °F - 54.0 °F 45% 29.70 in 10.0 mi SSE 18.4 mph 32.2 mph N/A   Clear
5:52 PM 75.0 °F - 54.0 °F 48% 29.69 in 10.0 mi SSE 17.3 mph 29.9 mph N/A   Clear
6:52 PM 73.0 °F - 54.0 °F 51% 29.72 in 10.0 mi SSE 16.1 mph - N/A   Clear
7:52 PM 72.0 °F - 55.0 °F 55% 29.73 in 10.0 mi SSE 15.0 mph - N/A   Clear
8:52 PM 71.1 °F - 55.0 °F 57% 29.73 in 10.0 mi SSE 19.6 mph 26.5 mph N/A   Clear
9:52 PM 70.0 °F - 55.9 °F 61% 29.73 in 10.0 mi SSE 19.6 mph 27.6 mph N/A   Clear
10:52 PM 69.1 °F - 57.0 °F 65% 29.72 in 10.0 mi SSE 20.7 mph 25.3 mph N/A   Clear
11:52 PM 68.0 °F - 57.9 °F 70% 29.70 in 10.0 mi SSE 18.4 mph 26.5 mph N/A   Clear